Weather History for Hebron, NE

Change the Weather History Date:

Tuesday, December 18, 2012

  Actual Average Record
Temperature  
Mean Temperature 42 °F -  
Max Temperature 54 °F 37 °F 65 °F (1976)
Min Temperature 31 °F 16 °F -12 °F (1985)
Degree Days  
Heating Degree Days 22    
Moisture  
Dew Point 29 °F    
Average Humidity 64    
Maximum Humidity 88    
Minimum Humidity 37    
Precipitation  
Precipitation 0.00 in - - ()
Sea Level Pressure  
Sea Level Pressure 29.68 in    
Wind  
Wind Speed 8 mph (WNW)    
Max Wind Speed 15 mph    
Max Gust Speed 24 mph    
Visibility 10 miles    
Events      
Averages and records for this station are not official NWS values.
T = Trace of Precipitation, MM = Missing Value Source: NWS Daily Summary

Daily Weather History Graph

Daily Weather History Graph

Search for Another Location

Airport:

Trip Planner

Search our weather history database for the weather conditions in past years. The results will help you decide how hot, cold, wet, or windy it might be!

Date:

Astronomy

Dec. 18, 2012 Rise Set
Actual Time 7:47 AM CST 5:06 PM CST
Civil Twilight 7:17 AM CST 5:37 PM CST
Nautical Twilight 6:42 AM CST 6:11 PM CST
Astronomical Twilight 6:09 AM CST 6:44 PM CST
Moon 11:28 AM CST (12/18) 11:34 PM CST (12/18)
Length of Visible Light 10h 20m
Length of Day
9h 19m
Waxing Crescent, 35% of the Moon is Illuminated
Dec 18
Waxing Crescent
Dec 19
First Quarter
Dec 28
Full
Jan 4
Last Quarter
Jan 11
New

Hourly Weather History & Observations

Time (CST) Temp. Windchill Dew Point Humidity Pressure Visibility Wind Dir Wind Speed Gust Speed Precip Events Conditions
12:15 AM 38.1 °F 30.7 °F 30.9 °F 75% 29.51 in 10.0 mi SSW 11.5 mph - N/A   Clear
12:35 AM 38.1 °F 29.8 °F 31.1 °F 76% 29.50 in 10.0 mi SSW 13.8 mph - N/A   Clear
12:55 AM 37.4 °F 30.3 °F 31.1 °F 78% 29.50 in 10.0 mi SW 10.4 mph - N/A   Clear
1:15 AM 38.3 °F 30.5 °F 31.5 °F 76% 29.51 in 10.0 mi SW 12.7 mph 18.4 mph N/A   Clear
1:35 AM 37.6 °F 30.5 °F 31.3 °F 78% 29.51 in 10.0 mi SW 10.4 mph - N/A   Clear
1:55 AM 37.0 °F 31.6 °F 31.1 °F 79% 29.52 in 10.0 mi WSW 6.9 mph - N/A   Clear
2:15 AM 36.7 °F 32.0 °F 30.7 °F 79% 29.52 in 10.0 mi WSW 5.8 mph - N/A   Clear
2:35 AM 35.6 °F - 30.2 °F 81% 29.52 in 10.0 mi Calm Calm - N/A   Clear
2:55 AM 35.8 °F 28.8 °F 29.8 °F 79% 29.53 in 10.0 mi WSW 9.2 mph - N/A   Clear
3:15 AM 36.9 °F - 29.3 °F 74% 29.52 in 10.0 mi Calm Calm - N/A   Clear
3:35 AM 35.1 °F 29.3 °F 28.8 °F 78% 29.53 in 10.0 mi WSW 6.9 mph - N/A   Clear
3:55 AM 36.3 °F 30.8 °F 29.3 °F 76% 29.53 in 10.0 mi West 6.9 mph - N/A   Clear
4:15 AM 36.5 °F 33.9 °F 29.1 °F 75% 29.52 in 10.0 mi West 3.5 mph - N/A   Clear
4:35 AM 34.5 °F 28.6 °F 28.4 °F 78% 29.52 in 10.0 mi WSW 6.9 mph - N/A   Clear
4:55 AM 36.3 °F 30.8 °F 28.9 °F 75% 29.51 in 10.0 mi SW 6.9 mph - N/A   Clear
5:15 AM 35.4 °F 31.5 °F 28.6 °F 76% 29.53 in 10.0 mi West 4.6 mph - N/A   Clear
5:35 AM 35.6 °F 29.2 °F 28.4 °F 75% 29.56 in 10.0 mi West 8.1 mph - N/A   Clear
5:55 AM 34.7 °F 28.1 °F 28.4 °F 78% 29.56 in 10.0 mi West 8.1 mph - N/A   Clear
6:15 AM 34.2 °F 29.0 °F 28.2 °F 79% 29.57 in 10.0 mi West 5.8 mph - N/A   Clear
6:35 AM 35.8 °F 30.1 °F 27.7 °F 72% 29.56 in 10.0 mi WNW 6.9 mph - N/A   Clear
6:55 AM 44.2 °F 37.6 °F 27.5 °F 52% 29.57 in 10.0 mi WNW 13.8 mph 20.7 mph N/A   Clear
7:15 AM 43.7 °F 37.3 °F 27.3 °F 53% 29.58 in 10.0 mi WNW 12.7 mph 19.6 mph N/A   Clear
7:35 AM 43.2 °F 36.2 °F 27.1 °F 53% 29.60 in 10.0 mi WNW 13.8 mph 20.7 mph N/A   Clear
7:55 AM 41.2 °F 36.0 °F 27.1 °F 57% 29.62 in 10.0 mi West 8.1 mph - N/A   Clear
8:15 AM 41.2 °F 35.0 °F 27.1 °F 57% 29.64 in 10.0 mi West 10.4 mph - N/A   Clear
8:35 AM 41.0 °F 35.2 °F 27.3 °F 58% 29.65 in 10.0 mi West 9.2 mph - N/A   Clear
8:55 AM 41.9 °F 36.3 °F 27.3 °F 56% 29.66 in 10.0 mi West 9.2 mph - N/A   Clear
9:15 AM 43.0 °F 38.2 °F 27.7 °F 55% 29.67 in 10.0 mi WNW 8.1 mph - N/A   Clear
9:35 AM 45.5 °F 39.6 °F 25.9 °F 46% 29.69 in 10.0 mi WNW 12.7 mph 18.4 mph N/A   Clear
9:55 AM 46.2 °F 39.8 °F 26.4 °F 46% 29.70 in 10.0 mi NW 15.0 mph 24.2 mph N/A   Clear
10:15 AM 46.8 °F - 27.0 °F 46% 29.70 in 10.0 mi NW 15.0 mph 20.7 mph N/A   Clear
10:35 AM 47.3 °F - 27.3 °F 46% 29.70 in 10.0 mi NW 13.8 mph 23.0 mph N/A   Clear
10:55 AM 48.2 °F - 28.4 °F 46% 29.70 in 10.0 mi NW 11.5 mph 19.6 mph N/A   Clear
11:15 AM 49.1 °F - 29.1 °F 46% 29.70 in 10.0 mi NW 15.0 mph 20.7 mph N/A   Clear
11:35 AM 50.0 °F - 30.2 °F 47% 29.71 in 10.0 mi NNW 8.1 mph 19.6 mph N/A   Clear
11:55 AM 50.9 °F - 30.4 °F 45% 29.71 in 10.0 mi NW 13.8 mph 19.6 mph N/A   Clear
12:15 PM 51.6 °F - 30.2 °F 44% 29.71 in 10.0 mi NNW 15.0 mph - N/A   Clear
12:35 PM 52.0 °F - 30.4 °F 44% 29.71 in 10.0 mi NNW 12.7 mph 19.6 mph N/A   Clear
12:55 PM 52.3 °F - 30.7 °F 44% 29.71 in 10.0 mi NW 12.7 mph 18.4 mph N/A   Clear
1:15 PM 53.2 °F - 31.1 °F 43% 29.72 in 10.0 mi WNW 10.4 mph - N/A   Clear
1:35 PM 53.6 °F - 30.4 °F 41% 29.72 in 10.0 mi WNW 10.4 mph - N/A   Clear
1:55 PM 53.8 °F - 30.0 °F 40% 29.73 in 10.0 mi NNW 8.1 mph - N/A   Clear
2:15 PM 53.8 °F - 29.5 °F 39% 29.75 in 10.0 mi NW 8.1 mph - N/A   Clear
2:35 PM 53.8 °F - 29.5 °F 39% 29.75 in 10.0 mi NW 8.1 mph - N/A   Clear
2:55 PM 53.8 °F - 29.1 °F 39% 29.75 in 10.0 mi NW 4.6 mph - N/A   Clear
3:15 PM 54.0 °F - 28.4 °F 37% 29.75 in 10.0 mi NW 5.8 mph - N/A   Clear
3:35 PM 53.4 °F - 27.5 °F 37% 29.76 in 10.0 mi NW 6.9 mph - N/A   Clear
3:55 PM 52.0 °F - 28.8 °F 41% 29.76 in 10.0 mi NW 3.5 mph - N/A   Clear
4:15 PM 51.3 °F - 28.0 °F 41% 29.76 in 10.0 mi NNW 5.8 mph - N/A   Clear
4:35 PM 50.0 °F - 28.2 °F 43% 29.77 in 10.0 mi Calm Calm - N/A   Clear
4:55 PM 48.2 °F - 28.0 °F 46% 29.78 in 10.0 mi Calm Calm - N/A   Clear
5:15 PM 43.9 °F - 27.9 °F 53% 29.78 in 10.0 mi Calm Calm - N/A   Clear
5:35 PM 40.1 °F - 27.9 °F 62% 29.79 in 10.0 mi Calm Calm - N/A   Clear
5:55 PM 37.4 °F - 27.5 °F 67% 29.79 in 10.0 mi Calm Calm - N/A   Clear
6:15 PM 38.5 °F - 28.0 °F 66% 29.80 in 10.0 mi Calm Calm - N/A   Clear
6:35 PM 35.8 °F - 26.8 °F 70% 29.79 in 10.0 mi Calm Calm - N/A   Clear
6:55 PM 35.6 °F - 27.7 °F 73% 29.80 in 10.0 mi Calm Calm - N/A   Clear
7:15 PM 34.3 °F - 27.7 °F 77% 29.81 in 10.0 mi Calm Calm - N/A   Clear
7:35 PM 31.6 °F - 26.6 °F 82% 29.81 in 10.0 mi Calm Calm - N/A   Clear
7:55 PM 32.0 °F - 27.5 °F 83% 29.81 in 10.0 mi Calm Calm - N/A   Clear
8:15 PM 32.7 °F - 27.3 °F 81% 29.80 in 10.0 mi Calm Calm - N/A   Clear
8:35 PM 33.1 °F - 27.5 °F 80% 29.81 in 10.0 mi Calm Calm - N/A   Clear
8:55 PM 31.1 °F - 26.6 °F 83% 29.80 in 10.0 mi Calm Calm - N/A   Clear
9:15 PM 31.6 °F - 27.5 °F 85% 29.81 in 10.0 mi Calm Calm - N/A   Clear
9:35 PM 31.8 °F - 27.3 °F 83% 29.81 in 10.0 mi Calm Calm - N/A   Clear
9:55 PM 32.0 °F - 27.5 °F 83% 29.81 in 10.0 mi Calm Calm - N/A   Clear
10:15 PM 32.7 °F - 28.0 °F 83% 29.82 in 10.0 mi Calm Calm - N/A   Clear
10:35 PM 31.8 °F - 27.9 °F 85% 29.81 in 10.0 mi Calm Calm - N/A   Clear
10:55 PM 31.8 °F - 28.8 °F 88% 29.81 in 10.0 mi Calm Calm - N/A   Clear
11:15 PM 32.0 °F - 28.4 °F 87% 29.81 in 10.0 mi Calm Calm - N/A   Clear
11:35 PM 33.4 °F 30.4 °F 28.9 °F 84% 29.81 in 10.0 mi SE 3.5 mph - N/A   Clear
11:55 PM 36.7 °F 32.9 °F 30.9 °F 80% 29.82 in 10.0 mi SSE 4.6 mph - N/A   Clear